Time,TemperatureF,DewpointF,PressureIn,WindDirection,WindDirectionDegrees,WindSpeedMPH,WindSpeedGustMPH,Humidity,HourlyPrecipIn,Conditions,Clouds,dailyrainin,SoftwareType,DateUTC
2013-03-02 00:15:00,58.9,47.0,30.03,West,281,4.0,7.0,66,0.00,,,0.00,weatherlink.com 1.10,2013-03-02 05:15:00,
2013-03-02 00:30:00,58.8,47.0,30.04,NNW,344,2.0,11.0,66,0.00,,,0.00,weatherlink.com 1.10,2013-03-02 05:30:00,
2013-03-02 00:49:00,58.6,48.0,30.02,NW,321,8.0,10.0,67,0.00,,,0.00,weatherlink.com 1.10,2013-03-02 05:49:00,
2013-03-02 01:00:00,58.4,47.0,30.03,NW,314,5.0,11.0,67,0.00,,,0.00,weatherlink.com 1.10,2013-03-02 06:00:00,
2013-03-02 01:15:00,58.3,47.0,30.02,NW,323,4.0,17.0,67,0.00,,,0.00,weatherlink.com 1.10,2013-03-02 06:15:00,
2013-03-02 01:30:00,58.0,47.0,30.03,WNW,300,10.0,15.0,67,0.00,,,0.00,weatherlink.com 1.10,2013-03-02 06:30:00,
2013-03-02 01:45:00,57.9,46.0,30.03,West,280,2.0,15.0,65,0.00,,,0.00,weatherlink.com 1.10,2013-03-02 06:45:00,
2013-03-02 02:00:00,57.6,45.0,30.03,NW,313,9.0,15.0,63,0.00,,,0.00,weatherlink.com 1.10,2013-03-02 07:00:00,
2013-03-02 02:15:00,57.3,44.0,30.02,NW,307,7.0,17.0,62,0.00,,,0.00,weatherlink.com 1.10,2013-03-02 07:15:00,
2013-03-02 02:30:00,57.2,43.0,30.02,NNW,328,3.0,11.0,60,0.00,,,0.00,weatherlink.com 1.10,2013-03-02 07:30:00,
2013-03-02 02:45:00,56.8,43.0,30.02,NW,316,2.0,13.0,60,0.00,,,0.00,weatherlink.com 1.10,2013-03-02 07:45:00,
2013-03-02 03:00:00,56.6,43.0,30.02,WNW,297,7.0,11.0,61,0.00,,,0.00,weatherlink.com 1.10,2013-03-02 08:00:00,
2013-03-02 03:15:00,56.3,44.0,30.02,NNE,20,3.0,13.0,63,0.00,,,0.00,weatherlink.com 1.10,2013-03-02 08:15:00,
2013-03-02 03:30:00,56.2,44.0,30.02,North,11,5.0,15.0,64,0.00,,,0.00,weatherlink.com 1.10,2013-03-02 08:30:00,
2013-03-02 03:45:00,56.0,43.0,30.02,North,352,7.0,16.0,62,0.00,,,0.00,weatherlink.com 1.10,2013-03-02 08:45:00,
2013-03-02 04:00:00,55.9,42.0,30.02,WSW,252,2.0,15.0,61,0.00,,,0.00,weatherlink.com 1.10,2013-03-02 09:00:00,
2013-03-02 04:15:00,55.7,42.0,30.02,WNW,291,9.0,14.0,61,0.00,,,0.00,weatherlink.com 1.10,2013-03-02 09:15:00,
2013-03-02 04:31:00,55.6,42.0,30.02,NNW,342,7.0,17.0,61,0.00,,,0.00,weatherlink.com 1.10,2013-03-02 09:31:00,
2013-03-02 04:45:00,55.6,43.0,30.03,West,273,1.0,15.0,62,0.00,,,0.00,weatherlink.com 1.10,2013-03-02 09:45:00,
2013-03-02 05:00:00,55.3,43.0,30.02,WNW,293,11.0,18.0,63,0.00,,,0.00,weatherlink.com 1.10,2013-03-02 10:00:00,
2013-03-02 05:15:00,55.2,43.0,30.03,NNW,345,7.0,14.0,63,0.00,,,0.00,weatherlink.com 1.10,2013-03-02 10:15:00,
2013-03-02 05:30:00,55.1,42.0,30.04,WNW,293,5.0,14.0,62,0.00,,,0.00,weatherlink.com 1.10,2013-03-02 10:30:00,
2013-03-02 05:45:00,55.2,42.0,30.05,NNE,19,6.0,11.0,62,0.00,,,0.00,weatherlink.com 1.10,2013-03-02 10:45:00,
2013-03-02 06:00:00,55.1,43.0,30.05,NW,307,6.0,13.0,63,0.00,,,0.00,weatherlink.com 1.10,2013-03-02 11:00:00,
2013-03-02 06:15:00,55.2,43.0,30.06,SW,236,1.0,10.0,63,0.00,,,0.00,weatherlink.com 1.10,2013-03-02 11:15:00,
2013-03-02 06:30:00,55.2,43.0,30.07,WNW,285,3.0,12.0,64,0.00,,,0.00,weatherlink.com 1.10,2013-03-02 11:30:00,
2013-03-02 06:45:00,55.2,43.0,30.07,WNW,301,4.0,8.0,64,0.00,,,0.00,weatherlink.com 1.10,2013-03-02 11:45:00,
2013-03-02 07:00:00,55.3,43.0,30.07,NNE,22,5.0,13.0,64,0.00,,,0.00,weatherlink.com 1.10,2013-03-02 12:00:00,
2013-03-02 07:15:00,55.3,43.0,30.07,NNW,328,2.0,14.0,64,0.00,,,0.00,weatherlink.com 1.10,2013-03-02 12:15:00,
2013-03-02 07:30:00,55.3,44.0,30.07,WNW,295,2.0,11.0,65,0.00,,,0.00,weatherlink.com 1.10,2013-03-02 12:30:00,
2013-03-02 07:46:00,55.2,44.0,30.08,WSW,255,7.0,16.0,65,0.00,,,0.00,weatherlink.com 1.10,2013-03-02 12:46:00,
2013-03-02 08:01:00,55.3,44.0,30.08,SE,136,1.0,19.0,65,0.00,,,0.00,weatherlink.com 1.10,2013-03-02 13:01:00,
2013-03-02 08:16:00,55.1,43.0,30.08,West,270,1.0,14.0,65,0.00,,,0.00,weatherlink.com 1.10,2013-03-02 13:16:00,
2013-03-02 08:31:00,55.3,44.0,30.08,NW,305,4.0,11.0,66,0.00,,,0.00,weatherlink.com 1.10,2013-03-02 13:31:00,
2013-03-02 08:49:00,55.2,43.0,30.08,NW,305,4.0,14.0,63,0.00,,,0.00,weatherlink.com 1.10,2013-03-02 13:49:00,
2013-03-02 09:01:00,55.0,42.0,30.09,NNE,29,2.0,14.0,62,0.00,,,0.00,weatherlink.com 1.10,2013-03-02 14:01:00,
2013-03-02 09:16:00,55.2,43.0,30.09,North,358,6.0,9.0,63,0.00,,,0.00,weatherlink.com 1.10,2013-03-02 14:16:00,
2013-03-02 09:31:00,55.2,42.0,30.10,NW,314,7.0,9.0,62,0.00,,,0.00,weatherlink.com 1.10,2013-03-02 14:31:00,
2013-03-02 09:46:00,55.4,42.0,30.09,NNW,331,1.0,8.0,60,0.00,,,0.00,weatherlink.com 1.10,2013-03-02 14:46:00,
2013-03-02 10:01:00,56.2,42.0,30.09,North,1,2.0,11.0,60,0.00,,,0.00,weatherlink.com 1.10,2013-03-02 15:01:00,
2013-03-02 10:16:00,56.7,42.0,30.09,WSW,252,0.0,5.0,58,0.00,,,0.00,weatherlink.com 1.10,2013-03-02 15:16:00,
2013-03-02 10:31:00,56.7,41.0,30.07,North,11,3.0,8.0,56,0.00,,,0.00,weatherlink.com 1.10,2013-03-02 15:31:00,
2013-03-02 10:46:00,57.3,42.0,30.08,NW,319,1.0,4.0,56,0.00,,,0.00,weatherlink.com 1.10,2013-03-02 15:46:00,
2013-03-02 11:01:00,57.7,42.0,30.07,North,356,4.0,4.0,56,0.00,,,0.00,weatherlink.com 1.10,2013-03-02 16:01:00,
2013-03-02 11:16:00,57.8,41.0,30.07,NNE,33,5.0,11.0,54,0.00,,,0.00,weatherlink.com 1.10,2013-03-02 16:16:00,
2013-03-02 11:31:00,57.7,40.0,30.07,NNW,346,5.0,11.0,53,0.00,,,0.00,weatherlink.com 1.10,2013-03-02 16:31:00,
2013-03-02 11:46:00,58.0,41.0,30.07,NE,52,1.0,7.0,53,0.00,,,0.00,weatherlink.com 1.10,2013-03-02 16:46:00,
2013-03-02 12:02:00,58.8,41.0,30.06,NW,319,5.0,12.0,52,0.00,,,0.00,weatherlink.com 1.10,2013-03-02 17:02:00,
2013-03-02 12:16:00,59.1,41.0,30.06,WSW,250,7.0,11.0,51,0.00,,,0.00,weatherlink.com 1.10,2013-03-02 17:16:00,
2013-03-02 12:32:00,60.1,41.0,30.05,WNW,300,3.0,11.0,50,0.00,,,0.00,weatherlink.com 1.10,2013-03-02 17:32:00,
2013-03-02 12:46:00,60.8,41.0,30.05,NNW,342,6.0,18.0,48,0.00,,,0.00,weatherlink.com 1.10,2013-03-02 17:46:00,
2013-03-02 13:01:00,61.8,42.0,30.04,ESE,116,3.0,15.0,49,0.00,,,0.00,weatherlink.com 1.10,2013-03-02 18:01:00,
2013-03-02 13:16:00,64.1,43.0,30.03,WNW,283,8.0,10.0,47,0.00,,,0.00,weatherlink.com 1.10,2013-03-02 18:16:00,
2013-03-02 13:31:00,63.9,44.0,30.02,West,264,6.0,12.0,48,0.00,,,0.00,weatherlink.com 1.10,2013-03-02 18:31:00,
2013-03-02 13:46:00,63.9,43.0,30.02,NNW,334,5.0,21.0,47,0.00,,,0.00,weatherlink.com 1.10,2013-03-02 18:46:00,
2013-03-02 14:01:00,63.7,43.0,30.02,North,6,12.0,20.0,47,0.00,,,0.00,weatherlink.com 1.10,2013-03-02 19:01:00,
2013-03-02 14:16:00,64.4,44.0,30.01,North,9,3.0,16.0,48,0.00,,,0.00,weatherlink.com 1.10,2013-03-02 19:16:00,
2013-03-02 14:31:00,66.0,44.0,30.01,West,280,12.0,20.0,46,0.00,,,0.00,weatherlink.com 1.10,2013-03-02 19:31:00,
2013-03-02 14:46:00,65.4,42.0,30.01,NW,319,16.0,24.0,43,0.00,,,0.00,weatherlink.com 1.10,2013-03-02 19:46:00,
2013-03-02 15:01:00,64.9,43.0,30.01,WNW,302,12.0,26.0,45,0.00,,,0.00,weatherlink.com 1.10,2013-03-02 20:01:00,
2013-03-02 15:16:00,64.6,43.0,30.01,NW,319,10.0,18.0,45,0.00,,,0.00,weatherlink.com 1.10,2013-03-02 20:16:00,
2013-03-02 15:31:00,63.4,42.0,30.01,WSW,245,19.0,23.0,45,0.00,,,0.00,weatherlink.com 1.10,2013-03-02 20:31:00,
2013-03-02 15:46:00,63.8,42.0,30.01,West,281,9.0,19.0,45,0.00,,,0.00,weatherlink.com 1.10,2013-03-02 20:46:00,
2013-03-02 16:01:00,63.9,43.0,30.01,NW,316,9.0,21.0,46,0.00,,,0.00,weatherlink.com 1.10,2013-03-02 21:01:00,
2013-03-02 16:16:00,64.1,42.0,30.02,NW,305,6.0,23.0,45,0.00,,,0.00,weatherlink.com 1.10,2013-03-02 21:16:00,
2013-03-02 16:31:00,62.8,42.0,30.02,NNW,333,6.0,21.0,47,0.00,,,0.00,weatherlink.com 1.10,2013-03-02 21:31:00,
2013-03-02 16:49:00,62.2,40.0,30.02,WNW,295,9.0,20.0,45,0.00,,,0.00,weatherlink.com 1.10,2013-03-02 21:49:00,
2013-03-02 17:01:00,61.8,41.0,30.02,West,270,5.0,18.0,47,0.00,,,0.00,weatherlink.com 1.10,2013-03-02 22:01:00,
2013-03-02 17:16:00,61.4,40.0,30.03,West,278,10.0,17.0,46,0.00,,,0.00,weatherlink.com 1.10,2013-03-02 22:16:00,
2013-03-02 17:31:00,61.3,41.0,30.03,WNW,291,3.0,15.0,47,0.00,,,0.00,weatherlink.com 1.10,2013-03-02 22:31:00,
2013-03-02 17:46:00,60.5,41.0,30.04,WNW,283,7.0,14.0,49,0.00,,,0.00,weatherlink.com 1.10,2013-03-02 22:46:00,
2013-03-02 18:01:00,60.3,39.0,30.05,WNW,285,6.0,19.0,46,0.00,,,0.00,weatherlink.com 1.10,2013-03-02 23:01:00,
2013-03-02 18:16:00,60.0,39.0,30.05,WNW,295,7.0,14.0,47,0.00,,,0.00,weatherlink.com 1.10,2013-03-02 23:16:00,
2013-03-02 18:31:00,59.7,40.0,30.05,NW,319,3.0,12.0,49,0.00,,,0.00,weatherlink.com 1.10,2013-03-02 23:31:00,
2013-03-02 18:46:00,59.4,41.0,30.05,West,265,3.0,10.0,50,0.00,,,0.00,weatherlink.com 1.10,2013-03-02 23:46:00,
2013-03-02 19:01:00,59.2,41.0,30.06,WNW,287,1.0,7.0,52,0.00,,,0.00,weatherlink.com 1.10,2013-03-03 00:01:00,
2013-03-02 19:16:00,59.1,42.0,30.06,West,271,5.0,8.0,53,0.00,,,0.00,weatherlink.com 1.10,2013-03-03 00:16:00,
2013-03-02 19:31:00,58.6,39.0,30.07,WNW,283,6.0,14.0,49,0.00,,,0.00,weatherlink.com 1.10,2013-03-03 00:31:00,
2013-03-02 19:47:00,58.0,40.0,30.08,WNW,295,6.0,13.0,52,0.00,,,0.00,weatherlink.com 1.10,2013-03-03 00:47:00,
2013-03-02 20:02:00,57.6,40.0,30.09,NW,314,5.0,10.0,53,0.00,,,0.00,weatherlink.com 1.10,2013-03-03 01:02:00,
2013-03-02 20:16:00,57.1,40.0,30.09,North,355,7.0,13.0,54,0.00,,,0.00,weatherlink.com 1.10,2013-03-03 01:16:00,
2013-03-02 20:31:00,56.8,41.0,30.09,NNW,330,2.0,11.0,55,0.00,,,0.00,weatherlink.com 1.10,2013-03-03 01:31:00,
2013-03-02 20:46:00,56.6,41.0,30.09,WNW,302,1.0,5.0,57,0.00,,,0.00,weatherlink.com 1.10,2013-03-03 01:46:00,
2013-03-02 21:01:00,56.3,41.0,30.09,WNW,302,2.0,5.0,57,0.00,,,0.00,weatherlink.com 1.10,2013-03-03 02:01:00,
2013-03-02 21:16:00,56.1,41.0,30.09,NW,315,2.0,4.0,58,0.00,,,0.00,weatherlink.com 1.10,2013-03-03 02:16:00,
2013-03-02 21:31:00,55.9,42.0,30.10,NW,311,0.0,3.0,59,0.00,,,0.00,weatherlink.com 1.10,2013-03-03 02:31:00,
2013-03-02 21:46:00,55.8,42.0,30.10,NNW,347,1.0,1.0,60,0.00,,,0.00,weatherlink.com 1.10,2013-03-03 02:46:00,
2013-03-02 22:01:00,55.9,42.0,30.10,West,267,1.0,3.0,61,0.00,,,0.00,weatherlink.com 1.10,2013-03-03 03:01:00,
2013-03-02 22:17:00,55.6,43.0,30.10,WNW,302,0.0,2.0,63,0.00,,,0.00,weatherlink.com 1.10,2013-03-03 03:17:00,
2013-03-02 22:32:00,55.2,43.0,30.09,WNW,295,0.0,2.0,63,0.00,,,0.00,weatherlink.com 1.10,2013-03-03 03:32:00,
2013-03-02 22:47:00,54.9,43.0,30.10,WNW,283,0.0,2.0,64,0.00,,,0.00,weatherlink.com 1.10,2013-03-03 03:47:00,
2013-03-02 23:02:00,54.4,43.0,30.09,West,277,0.0,1.0,66,0.00,,,0.00,weatherlink.com 1.10,2013-03-03 04:02:00,
2013-03-02 23:17:00,54.1,43.0,30.08,West,274,0.0,1.0,66,0.00,,,0.00,weatherlink.com 1.10,2013-03-03 04:17:00,
2013-03-02 23:32:00,53.8,44.0,30.08,West,274,0.0,1.0,69,0.00,,,0.00,weatherlink.com 1.10,2013-03-03 04:32:00,
2013-03-02 23:47:00,53.0,44.0,30.07,West,277,1.0,1.0,72,0.00,,,0.00,weatherlink.com 1.10,2013-03-03 04:47:00,